SXM-8

Last updated on Wed Oct 15 2025 00:02:49 GMT+0000 (Coordinated Universal Time)

1 48838U 21049A 25287.04147050 -.00000219 00000+0 00000+0 0 9993 2 48838 0.0170 30.4187 0003992 12.4553 269.7492 1.00270358 16122
UTC large
Height (km)
Speed (km/s)
/
Latitude / Longitude
Inclination (degrees)
Orbital Period (minutes)
Azimuth
Elevation
Range (km)
Doppler Factor

Next 0 passes for location: London (51.5072 / 0.1276)

Sorry there are no passes over London.